Year,Month,Day,Hour,Minute,Value (Times are PST for temperature in C)
2007,05,29,00,00,9.40
2007,05,29,00,01,9.40
2007,05,29,00,02,9.40
2007,05,29,00,03,9.30
2007,05,29,00,04,9.30
2007,05,29,00,05,9.30
2007,05,29,00,06,9.30
2007,05,29,00,07,9.30
2007,05,29,00,08,9.30
2007,05,29,00,09,9.30
2007,05,29,00,10,9.30
2007,05,29,00,11,9.30
2007,05,29,00,12,9.30
2007,05,29,00,13,9.30
2007,05,29,00,14,9.30
2007,05,29,00,15,9.30
2007,05,29,00,16,9.30
2007,05,29,00,17,9.30
2007,05,29,00,18,9.30
2007,05,29,00,19,9.30
2007,05,29,00,20,9.30
2007,05,29,00,21,9.20
2007,05,29,00,22,9.20
2007,05,29,00,23,9.20
2007,05,29,00,24,9.20
2007,05,29,00,25,9.20
2007,05,29,00,26,9.20
2007,05,29,00,27,9.20
2007,05,29,00,28,9.10
2007,05,29,00,29,9.10
2007,05,29,00,30,9.10
2007,05,29,00,31,9.10
2007,05,29,00,32,9.10
2007,05,29,00,33,9.10
2007,05,29,00,34,9.00
2007,05,29,00,35,9.00
2007,05,29,00,36,9.00
2007,05,29,00,37,8.90
2007,05,29,00,38,8.90
2007,05,29,00,39,8.90
2007,05,29,00,40,8.90
2007,05,29,00,41,8.80
2007,05,29,00,42,8.80
2007,05,29,00,43,8.80
2007,05,29,00,44,8.80
2007,05,29,00,45,8.80
2007,05,29,00,46,8.80
2007,05,29,00,47,8.80
2007,05,29,00,48,8.80
2007,05,29,00,49,8.70
2007,05,29,00,50,8.70
2007,05,29,00,51,8.70
2007,05,29,00,52,8.70
2007,05,29,00,53,8.70
2007,05,29,00,54,8.70
2007,05,29,00,55,8.70
2007,05,29,00,56,8.60
2007,05,29,00,57,8.60
2007,05,29,00,58,8.60
2007,05,29,00,59,8.60
2007,05,29,01,00,8.60
2007,05,29,01,01,8.60
2007,05,29,01,02,8.60
2007,05,29,01,03,8.50
2007,05,29,01,04,8.50
2007,05,29,01,05,8.50
2007,05,29,01,06,8.50
2007,05,29,01,07,8.50
2007,05,29,01,08,8.50
2007,05,29,01,09,8.40
2007,05,29,01,10,8.40
2007,05,29,01,11,8.40
2007,05,29,01,12,8.40
2007,05,29,01,13,8.40
2007,05,29,01,14,8.40
2007,05,29,01,15,8.40
2007,05,29,01,16,8.40
2007,05,29,01,17,8.40
2007,05,29,01,18,8.30
2007,05,29,01,19,8.30
2007,05,29,01,20,8.30
2007,05,29,01,21,8.30
2007,05,29,01,22,8.30
2007,05,29,01,23,8.30
2007,05,29,01,24,8.30
2007,05,29,01,25,8.30
2007,05,29,01,26,8.30
2007,05,29,01,27,8.30
2007,05,29,01,28,8.30
2007,05,29,01,29,8.30
2007,05,29,01,30,8.30
2007,05,29,01,31,8.30
2007,05,29,01,32,8.20
2007,05,29,01,33,8.20
2007,05,29,01,34,8.20
2007,05,29,01,35,8.20
2007,05,29,01,36,8.20
2007,05,29,01,37,8.20
2007,05,29,01,38,8.20
2007,05,29,01,39,8.20
2007,05,29,01,40,8.20
2007,05,29,01,41,8.20
2007,05,29,01,42,8.20
2007,05,29,01,43,8.20
2007,05,29,01,44,8.20
2007,05,29,01,45,8.20
2007,05,29,01,46,8.20
2007,05,29,01,47,8.20
2007,05,29,01,48,8.20
2007,05,29,01,49,8.20
2007,05,29,01,50,8.20
2007,05,29,01,51,8.20
2007,05,29,01,52,8.10
2007,05,29,01,53,8.20
2007,05,29,01,54,8.10
2007,05,29,01,55,8.10
2007,05,29,01,56,8.10
2007,05,29,01,57,8.10
2007,05,29,01,58,8.10
2007,05,29,01,59,8.10
2007,05,29,02,00,8.10
2007,05,29,02,01,8.10
2007,05,29,02,02,8.10
2007,05,29,02,03,8.10
2007,05,29,02,04,8.10
2007,05,29,02,05,8.00
2007,05,29,02,06,8.00
2007,05,29,02,07,8.00
2007,05,29,02,08,8.00
2007,05,29,02,09,8.00
2007,05,29,02,10,7.90
2007,05,29,02,11,7.90
2007,05,29,02,12,7.90
2007,05,29,02,13,7.90
2007,05,29,02,14,7.90
2007,05,29,02,15,7.90
2007,05,29,02,16,7.90
2007,05,29,02,17,7.80
2007,05,29,02,18,7.80
2007,05,29,02,19,7.80
2007,05,29,02,20,7.80
2007,05,29,02,21,7.80
2007,05,29,02,22,7.80
2007,05,29,02,23,7.80
2007,05,29,02,24,7.70
2007,05,29,02,25,7.70
2007,05,29,02,26,7.70
2007,05,29,02,27,7.70
2007,05,29,02,28,7.70
2007,05,29,02,29,7.70
2007,05,29,02,30,7.70
2007,05,29,02,31,7.70
2007,05,29,02,32,7.70
2007,05,29,02,33,7.70
2007,05,29,02,34,7.60
2007,05,29,02,35,7.60
2007,05,29,02,36,7.60
2007,05,29,02,37,7.70
2007,05,29,02,38,7.70
2007,05,29,02,39,7.70
2007,05,29,02,40,7.70
2007,05,29,02,41,7.70
2007,05,29,02,42,7.70
2007,05,29,02,43,7.70
2007,05,29,02,44,7.70
2007,05,29,02,45,7.70
2007,05,29,02,46,7.70
2007,05,29,02,47,7.70
2007,05,29,02,48,7.70
2007,05,29,02,49,7.70
2007,05,29,02,50,7.70
2007,05,29,02,51,7.70
2007,05,29,02,52,7.60
2007,05,29,02,53,7.60
2007,05,29,02,54,7.60
2007,05,29,02,55,7.60
2007,05,29,02,56,7.60
2007,05,29,02,57,7.60
2007,05,29,02,58,7.60
2007,05,29,02,59,7.60
2007,05,29,03,00,7.60
2007,05,29,03,01,7.60
2007,05,29,03,02,7.60
2007,05,29,03,03,7.60
2007,05,29,03,04,7.60
2007,05,29,03,05,7.70
2007,05,29,03,06,7.70
2007,05,29,03,07,7.70
2007,05,29,03,08,7.70
2007,05,29,03,09,7.70
2007,05,29,03,10,7.70
2007,05,29,03,11,7.70
2007,05,29,03,12,7.70
2007,05,29,03,13,7.70
2007,05,29,03,14,7.70
2007,05,29,03,15,7.70
2007,05,29,03,16,7.70
2007,05,29,03,17,7.70
2007,05,29,03,18,7.70
2007,05,29,03,19,7.80
2007,05,29,03,20,7.80
2007,05,29,03,21,7.80
2007,05,29,03,22,7.80
2007,05,29,03,23,7.80
2007,05,29,03,24,7.80
2007,05,29,03,25,7.80
2007,05,29,03,26,7.80
2007,05,29,03,27,7.80
2007,05,29,03,28,7.80
2007,05,29,03,29,7.80
2007,05,29,03,30,7.80
2007,05,29,03,31,7.80
2007,05,29,03,32,7.80
2007,05,29,03,33,7.70
2007,05,29,03,34,7.70
2007,05,29,03,35,7.70
2007,05,29,03,36,7.70
2007,05,29,03,37,7.70
2007,05,29,03,38,7.70
2007,05,29,03,39,7.70
2007,05,29,03,40,7.60
2007,05,29,03,41,7.60
2007,05,29,03,42,7.60
2007,05,29,03,43,7.60
2007,05,29,03,44,7.60
2007,05,29,03,45,7.60
2007,05,29,03,46,7.50
2007,05,29,03,47,7.50
2007,05,29,03,48,7.50
2007,05,29,03,49,7.50
2007,05,29,03,50,7.40
2007,05,29,03,51,7.40
2007,05,29,03,52,7.40
2007,05,29,03,53,7.40
2007,05,29,03,54,7.40
2007,05,29,03,55,7.40
2007,05,29,03,56,7.40
2007,05,29,03,57,7.40
2007,05,29,03,58,7.40
2007,05,29,03,59,7.40
2007,05,29,04,00,7.50
2007,05,29,04,01,7.50
2007,05,29,04,02,7.50
2007,05,29,04,03,7.50
2007,05,29,04,04,7.50
2007,05,29,04,05,7.50
2007,05,29,04,06,7.50
2007,05,29,04,07,7.50
2007,05,29,04,08,7.50
2007,05,29,04,09,7.50
2007,05,29,04,10,7.50
2007,05,29,04,11,7.50
2007,05,29,04,12,7.40
2007,05,29,04,13,7.50
2007,05,29,04,14,7.50
2007,05,29,04,15,7.50
2007,05,29,04,16,7.60
2007,05,29,04,17,7.60
2007,05,29,04,18,7.60
2007,05,29,04,19,7.60
2007,05,29,04,20,7.70
2007,05,29,04,21,7.70
2007,05,29,04,22,7.70
2007,05,29,04,23,7.70
2007,05,29,04,24,7.70
2007,05,29,04,25,7.60
2007,05,29,04,26,7.60
2007,05,29,04,27,7.60
2007,05,29,04,28,7.60
2007,05,29,04,29,7.60
2007,05,29,04,30,7.60
2007,05,29,04,31,7.60
2007,05,29,04,32,7.60
2007,05,29,04,33,7.50
2007,05,29,04,34,7.50
2007,05,29,04,35,7.50
2007,05,29,04,36,7.50
2007,05,29,04,37,7.50
2007,05,29,04,38,7.50
2007,05,29,04,39,7.40
2007,05,29,04,40,7.40
2007,05,29,04,41,7.40
2007,05,29,04,42,7.40
2007,05,29,04,43,7.40
2007,05,29,04,44,7.40
2007,05,29,04,45,7.40
2007,05,29,04,46,7.40
2007,05,29,04,47,7.40
2007,05,29,04,48,7.40
2007,05,29,04,49,7.30
2007,05,29,04,50,7.30
2007,05,29,04,51,7.30
2007,05,29,04,52,7.30
2007,05,29,04,53,7.20
2007,05,29,04,54,7.20
2007,05,29,04,55,7.20
2007,05,29,04,56,7.20
2007,05,29,04,57,7.20
2007,05,29,04,58,7.20
2007,05,29,04,59,7.20
2007,05,29,05,00,7.20
2007,05,29,05,01,7.20
2007,05,29,05,02,7.20
2007,05,29,05,03,7.20
2007,05,29,05,04,7.20
2007,05,29,05,05,7.20
2007,05,29,05,06,7.20
2007,05,29,05,07,7.20
2007,05,29,05,08,7.20
2007,05,29,05,09,7.20
2007,05,29,05,10,7.20
2007,05,29,05,11,7.20
2007,05,29,05,12,7.10
2007,05,29,05,13,7.10
2007,05,29,05,14,7.10
2007,05,29,05,15,7.00
2007,05,29,05,16,7.00
2007,05,29,05,17,7.00
2007,05,29,05,18,6.90
2007,05,29,05,19,6.90
2007,05,29,05,20,6.90
2007,05,29,05,21,6.90
2007,05,29,05,22,6.90
2007,05,29,05,23,6.90
2007,05,29,05,24,6.90
2007,05,29,05,25,6.90
2007,05,29,05,26,6.90
2007,05,29,05,27,6.90
2007,05,29,05,28,6.90
2007,05,29,05,29,6.90
2007,05,29,05,30,6.90
2007,05,29,05,31,6.90
2007,05,29,05,32,6.90
2007,05,29,05,33,6.90
2007,05,29,05,34,6.80
2007,05,29,05,35,6.80
2007,05,29,05,36,6.80
2007,05,29,05,37,6.80
2007,05,29,05,38,6.80
2007,05,29,05,39,6.80
2007,05,29,05,40,6.80
2007,05,29,05,41,6.80
2007,05,29,05,42,6.80
2007,05,29,05,43,6.80
2007,05,29,05,44,6.80
2007,05,29,05,45,6.80
2007,05,29,05,46,6.80
2007,05,29,05,47,6.80
2007,05,29,05,48,6.80
2007,05,29,05,49,6.80
2007,05,29,05,50,6.80
2007,05,29,05,51,6.80
2007,05,29,05,52,6.80
2007,05,29,05,53,6.80
2007,05,29,05,54,6.80
2007,05,29,05,55,6.80
2007,05,29,05,56,6.80
2007,05,29,05,57,6.90
2007,05,29,05,58,6.90
2007,05,29,05,59,6.90
2007,05,29,06,00,7.00
2007,05,29,06,01,7.00
2007,05,29,06,02,7.10
2007,05,29,06,03,7.10
2007,05,29,06,04,7.20
2007,05,29,06,05,7.20
2007,05,29,06,06,7.20
2007,05,29,06,07,7.20
2007,05,29,06,08,7.20
2007,05,29,06,09,7.20
2007,05,29,06,10,7.20
2007,05,29,06,11,7.20
2007,05,29,06,12,7.30
2007,05,29,06,13,7.30
2007,05,29,06,14,7.30
2007,05,29,06,15,7.30
2007,05,29,06,16,7.30
2007,05,29,06,17,7.30
2007,05,29,06,18,7.40
2007,05,29,06,19,7.40
2007,05,29,06,20,7.40
2007,05,29,06,21,7.50
2007,05,29,06,22,7.50
2007,05,29,06,23,7.60
2007,05,29,06,24,7.60
2007,05,29,06,25,7.70
2007,05,29,06,26,7.70
2007,05,29,06,27,7.70
2007,05,29,06,28,7.80
2007,05,29,06,29,7.80
2007,05,29,06,30,7.90
2007,05,29,06,31,7.90
2007,05,29,06,32,8.00
2007,05,29,06,33,8.10
2007,05,29,06,34,8.20
2007,05,29,06,35,8.20
2007,05,29,06,36,8.30
2007,05,29,06,37,8.40
2007,05,29,06,38,8.40
2007,05,29,06,39,8.50
2007,05,29,06,40,8.50
2007,05,29,06,41,8.60
2007,05,29,06,42,8.60
2007,05,29,06,43,8.70
2007,05,29,06,44,8.70
2007,05,29,06,45,8.80
2007,05,29,06,46,8.80
2007,05,29,06,47,8.90
2007,05,29,06,48,8.90
2007,05,29,06,49,9.00
2007,05,29,06,50,9.10
2007,05,29,06,51,9.20
2007,05,29,06,52,9.20
2007,05,29,06,53,9.30
2007,05,29,06,54,9.30
2007,05,29,06,55,9.40
2007,05,29,06,56,9.50
2007,05,29,06,57,9.60
2007,05,29,06,58,9.70
2007,05,29,06,59,9.80
2007,05,29,07,00,9.80
2007,05,29,07,01,9.90
2007,05,29,07,02,9.90
2007,05,29,07,03,9.90
2007,05,29,07,04,9.90
2007,05,29,07,05,9.90
2007,05,29,07,06,9.90
2007,05,29,07,07,9.90
2007,05,29,07,08,10.00
2007,05,29,07,09,10.00
2007,05,29,07,10,10.10
2007,05,29,07,11,10.10
2007,05,29,07,12,10.20
2007,05,29,07,13,10.30
2007,05,29,07,14,10.30
2007,05,29,07,15,10.40
2007,05,29,07,16,10.40
2007,05,29,07,17,10.40
2007,05,29,07,18,10.50
2007,05,29,07,19,10.50
2007,05,29,07,20,10.60
2007,05,29,07,21,10.70
2007,05,29,07,22,10.80
2007,05,29,07,23,10.80
2007,05,29,07,24,10.90
2007,05,29,07,25,11.00
2007,05,29,07,26,11.00
2007,05,29,07,27,11.10
2007,05,29,07,28,11.10
2007,05,29,07,29,11.20
2007,05,29,07,30,11.30
2007,05,29,07,31,11.40
2007,05,29,07,32,11.40
2007,05,29,07,33,11.50
2007,05,29,07,34,11.50
2007,05,29,07,35,11.60
2007,05,29,07,36,11.60
2007,05,29,07,37,11.70
2007,05,29,07,38,11.70
2007,05,29,07,39,11.80
2007,05,29,07,40,11.80
2007,05,29,07,41,11.90
2007,05,29,07,42,12.00
2007,05,29,07,43,12.10
2007,05,29,07,44,12.20
2007,05,29,07,45,12.20
2007,05,29,07,46,12.20
2007,05,29,07,47,12.30
2007,05,29,07,48,12.30
2007,05,29,07,49,12.40
2007,05,29,07,50,12.50
2007,05,29,07,51,12.50
2007,05,29,07,52,12.60
2007,05,29,07,53,12.60
2007,05,29,07,54,12.70
2007,05,29,07,55,12.70
2007,05,29,07,56,12.80
2007,05,29,07,57,12.80
2007,05,29,07,58,12.90
2007,05,29,07,59,13.00
2007,05,29,08,00,13.00
2007,05,29,08,01,13.20
2007,05,29,08,02,13.30
2007,05,29,08,03,13.30
2007,05,29,08,04,13.40
2007,05,29,08,05,13.40
2007,05,29,08,06,13.50
2007,05,29,08,07,13.60
2007,05,29,08,08,13.60
2007,05,29,08,09,13.70
2007,05,29,08,10,13.70
2007,05,29,08,11,13.80
2007,05,29,08,12,13.90
2007,05,29,08,13,13.90
2007,05,29,08,14,14.00
2007,05,29,08,15,14.00
2007,05,29,08,16,14.10
2007,05,29,08,17,14.10
2007,05,29,08,18,14.20
2007,05,29,08,19,14.30
2007,05,29,08,20,14.30
2007,05,29,08,21,14.40
2007,05,29,08,22,14.50
2007,05,29,08,23,14.50
2007,05,29,08,24,14.60
2007,05,29,08,25,14.60
2007,05,29,08,26,14.70
2007,05,29,08,27,14.80
2007,05,29,08,28,14.90
2007,05,29,08,29,15.00
2007,05,29,08,30,15.00
2007,05,29,08,31,15.00
2007,05,29,08,32,15.00
2007,05,29,08,33,15.00
2007,05,29,08,34,15.00
2007,05,29,08,35,15.00
2007,05,29,08,36,15.00
2007,05,29,08,37,15.10
2007,05,29,08,38,15.00
2007,05,29,08,39,15.10
2007,05,29,08,40,15.10
2007,05,29,08,41,15.10
2007,05,29,08,42,15.20
2007,05,29,08,43,15.30
2007,05,29,08,44,15.20
2007,05,29,08,45,15.20
2007,05,29,08,46,15.20
2007,05,29,08,47,15.20
2007,05,29,08,48,15.20
2007,05,29,08,49,15.20
2007,05,29,08,50,15.20
2007,05,29,08,51,15.20
2007,05,29,08,52,15.30
2007,05,29,08,53,15.40
2007,05,29,08,54,15.40
2007,05,29,08,55,15.60
2007,05,29,08,56,15.70
2007,05,29,08,57,15.80
2007,05,29,08,58,15.90
2007,05,29,08,59,16.00
2007,05,29,09,00,16.00
2007,05,29,09,01,16.10
2007,05,29,09,02,16.10
2007,05,29,09,03,16.20
2007,05,29,09,04,16.20
2007,05,29,09,05,16.30
2007,05,29,09,06,16.30
2007,05,29,09,07,16.30
2007,05,29,09,08,16.30
2007,05,29,09,09,16.40
2007,05,29,09,10,16.40
2007,05,29,09,11,16.40
2007,05,29,09,12,16.50
2007,05,29,09,13,16.50
2007,05,29,09,14,16.60
2007,05,29,09,15,16.60
2007,05,29,09,16,16.60
2007,05,29,09,17,16.60
2007,05,29,09,18,16.60
2007,05,29,09,19,16.60
2007,05,29,09,20,16.60
2007,05,29,09,21,16.60
2007,05,29,09,22,16.60
2007,05,29,09,23,16.60
2007,05,29,09,24,16.60
2007,05,29,09,25,16.50
2007,05,29,09,26,16.50
2007,05,29,09,27,16.50
2007,05,29,09,28,16.50
2007,05,29,09,29,16.60
2007,05,29,09,30,16.60
2007,05,29,09,31,16.60
2007,05,29,09,32,16.60
2007,05,29,09,33,16.60
2007,05,29,09,34,16.60
2007,05,29,09,35,16.70
2007,05,29,09,36,16.80
2007,05,29,09,37,16.80
2007,05,29,09,38,16.80
2007,05,29,09,39,16.80
2007,05,29,09,40,16.70
2007,05,29,09,41,16.70
2007,05,29,09,42,16.70
2007,05,29,09,43,16.70
2007,05,29,09,44,16.70
2007,05,29,09,45,16.60
2007,05,29,09,46,16.60
2007,05,29,09,47,16.50
2007,05,29,09,48,16.50
2007,05,29,09,49,16.40
2007,05,29,09,50,16.40
2007,05,29,09,51,16.40
2007,05,29,09,52,16.40
2007,05,29,09,53,16.40
2007,05,29,09,54,16.40
2007,05,29,09,55,16.50
2007,05,29,09,56,16.60
2007,05,29,09,57,16.70
2007,05,29,09,58,16.70
2007,05,29,09,59,16.70
2007,05,29,10,00,16.80
2007,05,29,10,01,16.70
2007,05,29,10,02,16.70
2007,05,29,10,03,16.80
2007,05,29,10,04,16.80
2007,05,29,10,05,16.80
2007,05,29,10,06,16.80
2007,05,29,10,07,16.70
2007,05,29,10,08,16.80
2007,05,29,10,09,16.80
2007,05,29,10,10,17.00
2007,05,29,10,11,17.10
2007,05,29,10,12,17.20
2007,05,29,10,13,17.30
2007,05,29,10,14,17.40
2007,05,29,10,15,17.50
2007,05,29,10,16,17.50
2007,05,29,10,17,17.50
2007,05,29,10,18,17.30
2007,05,29,10,19,17.20
2007,05,29,10,20,17.10
2007,05,29,10,21,17.00
2007,05,29,10,22,17.00
2007,05,29,10,23,17.00
2007,05,29,10,24,17.10
2007,05,29,10,25,17.10
2007,05,29,10,26,17.10
2007,05,29,10,27,17.10
2007,05,29,10,28,17.10
2007,05,29,10,29,17.10
2007,05,29,10,30,17.10
2007,05,29,10,31,17.00
2007,05,29,10,32,17.00
2007,05,29,10,33,16.90
2007,05,29,10,34,16.90
2007,05,29,10,35,16.90
2007,05,29,10,36,16.90
2007,05,29,10,37,16.90
2007,05,29,10,38,17.00
2007,05,29,10,39,17.10
2007,05,29,10,40,17.10
2007,05,29,10,41,17.10
2007,05,29,10,42,17.10
2007,05,29,10,43,17.20
2007,05,29,10,44,17.20
2007,05,29,10,45,17.20
2007,05,29,10,46,17.30
2007,05,29,10,47,17.30
2007,05,29,10,48,17.30
2007,05,29,10,49,17.30
2007,05,29,10,50,17.30
2007,05,29,10,51,17.20
2007,05,29,10,52,17.20
2007,05,29,10,53,17.20
2007,05,29,10,54,17.20
2007,05,29,10,55,17.20
2007,05,29,10,56,17.20
2007,05,29,10,57,17.20
2007,05,29,10,58,17.30
2007,05,29,10,59,17.40
2007,05,29,11,00,17.50
2007,05,29,11,01,17.60
2007,05,29,11,02,17.60
2007,05,29,11,03,17.70
2007,05,29,11,04,17.70
2007,05,29,11,05,17.70
2007,05,29,11,06,17.70
2007,05,29,11,07,17.70
2007,05,29,11,08,17.70
2007,05,29,11,09,17.80
2007,05,29,11,10,17.80
2007,05,29,11,11,17.90
2007,05,29,11,12,18.00
2007,05,29,11,13,18.00
2007,05,29,11,14,18.00
2007,05,29,11,15,18.10
2007,05,29,11,16,18.00
2007,05,29,11,17,18.00
2007,05,29,11,18,18.00
2007,05,29,11,19,18.00
2007,05,29,11,20,18.00
2007,05,29,11,21,18.00
2007,05,29,11,22,18.00
2007,05,29,11,23,18.00
2007,05,29,11,24,18.10
2007,05,29,11,25,18.00
2007,05,29,11,26,17.90
2007,05,29,11,27,17.90
2007,05,29,11,28,17.90
2007,05,29,11,29,17.90
2007,05,29,11,30,18.00
2007,05,29,11,31,18.10
2007,05,29,11,32,18.20
2007,05,29,11,33,18.20
2007,05,29,11,34,18.30
2007,05,29,11,35,18.30
2007,05,29,11,36,18.20
2007,05,29,11,37,18.20
2007,05,29,11,38,18.20
2007,05,29,11,39,18.20
2007,05,29,11,40,18.20
2007,05,29,11,41,18.30
2007,05,29,11,42,18.40
2007,05,29,11,43,18.50
2007,05,29,11,44,18.60
2007,05,29,11,45,18.70
2007,05,29,11,46,18.70
2007,05,29,11,47,18.70
2007,05,29,11,48,18.70
2007,05,29,11,49,18.80
2007,05,29,11,50,18.90
2007,05,29,11,51,18.90
2007,05,29,11,52,18.90
2007,05,29,11,53,18.90
2007,05,29,11,54,18.90
2007,05,29,11,55,18.80
2007,05,29,11,56,18.80
2007,05,29,11,57,18.80
2007,05,29,11,58,18.90
2007,05,29,11,59,18.90
2007,05,29,12,00,18.90
2007,05,29,12,01,18.90
2007,05,29,12,02,18.90
2007,05,29,12,03,18.80
2007,05,29,12,04,18.80
2007,05,29,12,05,18.80
2007,05,29,12,06,18.80
2007,05,29,12,07,18.80
2007,05,29,12,08,18.80
2007,05,29,12,09,18.90
2007,05,29,12,10,18.90
2007,05,29,12,11,19.00
2007,05,29,12,12,19.10
2007,05,29,12,13,19.20
2007,05,29,12,14,19.30
2007,05,29,12,15,19.40
2007,05,29,12,16,19.40
2007,05,29,12,17,19.40
2007,05,29,12,18,19.30
2007,05,29,12,19,19.30
2007,05,29,12,20,19.30
2007,05,29,12,21,19.30
2007,05,29,12,22,19.40
2007,05,29,12,23,19.50
2007,05,29,12,24,19.60
2007,05,29,12,25,19.70
2007,05,29,12,26,19.80
2007,05,29,12,27,19.90
2007,05,29,12,28,19.90
2007,05,29,12,29,19.90
2007,05,29,12,30,19.90
2007,05,29,12,31,19.90
2007,05,29,12,32,20.00
2007,05,29,12,33,20.10
2007,05,29,12,34,20.30
2007,05,29,12,35,20.20
2007,05,29,12,36,20.20
2007,05,29,12,37,20.10
2007,05,29,12,38,20.00
2007,05,29,12,39,19.90
2007,05,29,12,40,19.90
2007,05,29,12,41,19.80
2007,05,29,12,42,19.80
2007,05,29,12,43,19.70
2007,05,29,12,44,19.60
2007,05,29,12,45,19.60
2007,05,29,12,46,19.70
2007,05,29,12,47,19.80
2007,05,29,12,48,19.90
2007,05,29,12,49,19.90
2007,05,29,12,50,19.90
2007,05,29,12,51,20.10
2007,05,29,12,52,20.20
2007,05,29,12,53,20.30
2007,05,29,12,54,20.30
2007,05,29,12,55,20.40
2007,05,29,12,56,20.50
2007,05,29,12,57,20.50
2007,05,29,12,58,20.50
2007,05,29,12,59,20.40
2007,05,29,13,00,20.40
2007,05,29,13,01,20.50
2007,05,29,13,02,20.60
2007,05,29,13,03,20.60
2007,05,29,13,04,20.60
2007,05,29,13,05,20.60
2007,05,29,13,06,20.60
2007,05,29,13,07,20.60
2007,05,29,13,08,20.60
2007,05,29,13,09,20.70
2007,05,29,13,10,20.70
2007,05,29,13,11,20.70
2007,05,29,13,12,20.70
2007,05,29,13,13,20.80
2007,05,29,13,14,20.80
2007,05,29,13,15,20.90
2007,05,29,13,16,20.90
2007,05,29,13,17,21.00
2007,05,29,13,18,21.00
2007,05,29,13,19,21.10
2007,05,29,13,20,21.10
2007,05,29,13,21,21.20
2007,05,29,13,22,21.30
2007,05,29,13,23,21.40
2007,05,29,13,24,21.50
2007,05,29,13,25,21.50
2007,05,29,13,26,21.70
2007,05,29,13,27,21.80
2007,05,29,13,28,21.80
2007,05,29,13,29,21.60
2007,05,29,13,30,21.40
2007,05,29,13,31,21.10
2007,05,29,13,32,20.90
2007,05,29,13,33,20.90
2007,05,29,13,34,20.90
2007,05,29,13,35,20.90
2007,05,29,13,36,21.00
2007,05,29,13,37,21.20
2007,05,29,13,38,21.30
2007,05,29,13,39,21.30
2007,05,29,13,40,21.20
2007,05,29,13,41,21.20
2007,05,29,13,42,21.30
2007,05,29,13,43,21.30
2007,05,29,13,44,21.20
2007,05,29,13,45,21.10
2007,05,29,13,46,21.10
2007,05,29,13,47,21.20
2007,05,29,13,48,21.30
2007,05,29,13,49,21.30
2007,05,29,13,50,21.30
2007,05,29,13,51,21.40
2007,05,29,13,52,21.30
2007,05,29,13,53,21.30
2007,05,29,13,54,21.30
2007,05,29,13,55,21.30
2007,05,29,13,56,21.30
2007,05,29,13,57,21.40
2007,05,29,13,58,21.50
2007,05,29,13,59,21.60
2007,05,29,14,00,21.60
2007,05,29,14,01,21.60
2007,05,29,14,02,21.60
2007,05,29,14,03,21.50
2007,05,29,14,04,21.40
2007,05,29,14,05,21.40
2007,05,29,14,06,21.40
2007,05,29,14,07,21.50
2007,05,29,14,08,21.70
2007,05,29,14,09,21.70
2007,05,29,14,10,21.60
2007,05,29,14,11,21.60
2007,05,29,14,12,21.70
2007,05,29,14,13,21.80
2007,05,29,14,14,21.80
2007,05,29,14,15,21.80
2007,05,29,14,16,21.90
2007,05,29,14,17,21.90
2007,05,29,14,18,21.90
2007,05,29,14,19,22.00
2007,05,29,14,20,22.00
2007,05,29,14,21,22.00
2007,05,29,14,22,21.70
2007,05,29,14,23,21.20
2007,05,29,14,24,20.50
2007,05,29,14,25,20.10
2007,05,29,14,26,19.70
2007,05,29,14,27,19.50
2007,05,29,14,28,19.10
2007,05,29,14,29,18.60
2007,05,29,14,30,18.30
2007,05,29,14,31,18.10
2007,05,29,14,32,17.90
2007,05,29,14,33,17.70
2007,05,29,14,34,17.50
2007,05,29,14,35,17.20
2007,05,29,14,36,17.10
2007,05,29,14,37,17.00
2007,05,29,14,38,16.90
2007,05,29,14,39,16.90
2007,05,29,14,40,16.90
2007,05,29,14,41,17.00
2007,05,29,14,42,17.10
2007,05,29,14,43,17.20
2007,05,29,14,44,17.30
2007,05,29,14,45,17.30
2007,05,29,14,46,17.50
2007,05,29,14,47,17.70
2007,05,29,14,48,17.80
2007,05,29,14,49,17.80
2007,05,29,14,50,17.80
2007,05,29,14,51,18.00
2007,05,29,14,52,18.10
2007,05,29,14,53,18.20
2007,05,29,14,54,18.10
2007,05,29,14,55,18.00
2007,05,29,14,56,18.00
2007,05,29,14,57,17.90
2007,05,29,14,58,18.00
2007,05,29,14,59,18.10
2007,05,29,15,00,18.20
2007,05,29,15,01,18.20
2007,05,29,15,02,18.30
2007,05,29,15,03,18.30
2007,05,29,15,04,18.30
2007,05,29,15,05,18.40
2007,05,29,15,06,18.40
2007,05,29,15,07,18.50
2007,05,29,15,08,18.70
2007,05,29,15,09,18.80
2007,05,29,15,10,18.90
2007,05,29,15,11,19.00
2007,05,29,15,12,18.90
2007,05,29,15,13,18.90
2007,05,29,15,14,19.00
2007,05,29,15,15,19.10
2007,05,29,15,16,19.20
2007,05,29,15,17,19.20
2007,05,29,15,18,19.20
2007,05,29,15,19,19.30
2007,05,29,15,20,19.30
2007,05,29,15,21,19.30
2007,05,29,15,22,19.30
2007,05,29,15,23,19.20
2007,05,29,15,24,19.20
2007,05,29,15,25,19.30
2007,05,29,15,26,19.30
2007,05,29,15,27,19.10
2007,05,29,15,28,18.90
2007,05,29,15,29,18.70
2007,05,29,15,30,18.60
2007,05,29,15,31,18.60
2007,05,29,15,32,18.60
2007,05,29,15,33,18.70
2007,05,29,15,34,18.70
2007,05,29,15,35,18.70
2007,05,29,15,36,18.70
2007,05,29,15,37,18.80
2007,05,29,15,38,18.90
2007,05,29,15,39,19.00
2007,05,29,15,40,19.10
2007,05,29,15,41,19.00
2007,05,29,15,42,19.00
2007,05,29,15,43,19.00
2007,05,29,15,44,19.10
2007,05,29,15,45,19.10
2007,05,29,15,46,19.30
2007,05,29,15,47,19.20
2007,05,29,15,48,19.00
2007,05,29,15,49,18.90
2007,05,29,15,50,18.70
2007,05,29,15,51,18.50
2007,05,29,15,52,18.40
2007,05,29,15,53,18.50
2007,05,29,15,54,18.50
2007,05,29,15,55,18.40
2007,05,29,15,56,18.30
2007,05,29,15,57,18.30
2007,05,29,15,58,18.30
2007,05,29,15,59,18.40
2007,05,29,16,00,18.40
2007,05,29,16,01,18.60
2007,05,29,16,02,18.80
2007,05,29,16,03,18.90
2007,05,29,16,04,19.10
2007,05,29,16,05,19.30
2007,05,29,16,06,19.40
2007,05,29,16,07,19.50
2007,05,29,16,08,19.70
2007,05,29,16,09,19.70
2007,05,29,16,10,19.80
2007,05,29,16,11,19.80
2007,05,29,16,12,19.80
2007,05,29,16,13,19.90
2007,05,29,16,14,20.00
2007,05,29,16,15,20.00
2007,05,29,16,16,20.10
2007,05,29,16,17,20.00
2007,05,29,16,18,19.90
2007,05,29,16,19,19.90
2007,05,29,16,20,19.90
2007,05,29,16,21,19.90
2007,05,29,16,22,19.90
2007,05,29,16,23,19.80
2007,05,29,16,24,19.60
2007,05,29,16,25,19.50
2007,05,29,16,26,19.40
2007,05,29,16,27,19.30
2007,05,29,16,28,19.30
2007,05,29,16,29,19.30
2007,05,29,16,30,19.30
2007,05,29,16,31,19.40
2007,05,29,16,32,19.50
2007,05,29,16,33,19.50
2007,05,29,16,34,19.50
2007,05,29,16,35,19.40
2007,05,29,16,36,19.30
2007,05,29,16,37,19.40
2007,05,29,16,38,19.40
2007,05,29,16,39,19.30
2007,05,29,16,40,19.30
2007,05,29,16,41,19.20
2007,05,29,16,42,19.20
2007,05,29,16,43,19.20
2007,05,29,16,44,19.10
2007,05,29,16,45,19.10
2007,05,29,16,46,19.10
2007,05,29,16,47,19.20
2007,05,29,16,48,19.30
2007,05,29,16,49,19.30
2007,05,29,16,50,19.40
2007,05,29,16,51,19.50
2007,05,29,16,52,19.60
2007,05,29,16,53,19.60
2007,05,29,16,54,19.70
2007,05,29,16,55,19.70
2007,05,29,16,56,19.80
2007,05,29,16,57,19.80
2007,05,29,16,58,19.80
2007,05,29,16,59,19.80
2007,05,29,17,00,19.80
2007,05,29,17,01,19.80
2007,05,29,17,02,19.70
2007,05,29,17,03,19.60
2007,05,29,17,04,19.60
2007,05,29,17,05,19.50
2007,05,29,17,06,19.50
2007,05,29,17,07,19.40
2007,05,29,17,08,19.30
2007,05,29,17,09,19.20
2007,05,29,17,10,19.20
2007,05,29,17,11,19.30
2007,05,29,17,12,19.40
2007,05,29,17,13,19.50
2007,05,29,17,14,19.50
2007,05,29,17,15,19.60
2007,05,29,17,16,19.60
2007,05,29,17,17,19.60
2007,05,29,17,18,19.60
2007,05,29,17,19,19.70
2007,05,29,17,20,19.70
2007,05,29,17,21,19.80
2007,05,29,17,22,19.90
2007,05,29,17,23,20.00
2007,05,29,17,24,20.20
2007,05,29,17,25,20.30
2007,05,29,17,26,20.40
2007,05,29,17,27,20.50
2007,05,29,17,28,20.60
2007,05,29,17,29,20.70
2007,05,29,17,30,20.80
2007,05,29,17,31,20.80
2007,05,29,17,32,20.80
2007,05,29,17,33,20.80
2007,05,29,17,34,20.90
2007,05,29,17,35,21.00
2007,05,29,17,36,21.10
2007,05,29,17,37,21.10
2007,05,29,17,38,21.00